Location: Newark
(40.0251°N, 85.2247°W)
Time: 10:29:45
(UTC+00:00)

Hubble Space Telescope - Pass Details

Date: 22 December 2019
Orbit: 536 x 540 km, 28.5° (Epoch: 18 January)

Event Time Altitude Azimuth Distance (km) Brightness Sun altitude
Exits shadow 10:16:36 12° 156° (SSE) 1,672 3.6 -30.3°
Drops below altitude 10° 10:17:08 10° 150° (SSE) 1,783 3.8 -30.2°
Sets 10:20:08 0° 127° (SE) 2,673 5.2 -29.6°
